KC5MUJ-1 Weather Reports


time (UTC)temp
C
wind
direction
speed
KPH
gust
KPH
rain 1hr
cm
rain 24hr
cm
rain mn
cm
humidity
%
barometer
mb
20260509234501 30 80 0.0 0.0 0.00 0.00 0.00 60 1009.1
20260509233001 31 80 0.0 0.0 0.00 0.00 0.00 57 1009.0
20260509232501 31 81 0.0 0.0 0.00 0.00 0.00 55 1009.1
20260509232001 30 98 0.0 0.0 0.00 0.00 0.00 54 1009.0
20260509231501 30 99 0.0 3.2 0.00 0.00 0.00 54 1009.0
20260509231001 31 99 0.0 3.2 0.00 0.00 0.00 55 1008.9
20260509230501 30 99 0.0 1.6 0.00 0.00 0.00 55 1009.1
20260509230001 30 100 0.0 0.0 0.00 0.00 0.00 55 1009.0
20260509225501 30 100 0.0 0.0 0.00 0.00 0.00 56 1009.1
20260509225001 30 100 0.0 0.0 0.00 0.00 0.00 55 1009.0
20260509224001 30 100 0.0 0.0 0.00 0.00 0.00 56 1009.2
20260509223501 30 100 0.0 0.0 0.00 0.00 0.00 55 1009.1
20260509223002 30 101 0.0 0.0 0.00 0.00 0.00 52 1009.2
20260509222001 31 107 0.0 0.0 0.00 0.00 0.00 50 1009.1
20260509221501 31 146 0.0 0.0 0.00 0.00 0.00 49 1009.2
20260509221002 31 149 0.0 0.0 0.00 0.00 0.00 49 1009.0
20260509220501 31 177 0.0 0.0 0.00 0.00 0.00 49 1009.1
20260509220002 32 180 0.0 0.0 0.00 0.00 0.00 50 1009.1
20260509215502 32 144 0.0 0.0 0.00 0.00 0.00 50 1009.2
20260509215002 32 147 0.0 0.0 0.00 0.00 0.00 51 1009.2
20260509214501 32 149 0.0 0.0 0.00 0.00 0.00 51 1009.2
20260509214002 32 176 0.0 0.0 0.00 0.00 0.00 53 1009.5
20260509213501 31 188 0.0 0.0 0.00 0.00 0.00 53 1009.4
20260509213001 31 148 0.0 0.0 0.00 0.00 0.00 62 1009.4
20260509212001 31 89 0.0 1.6 0.00 0.00 0.00 60 1009.6
20260509211502 31 90 0.0 1.6 0.00 0.00 0.00 58 1009.6
20260509210501 32 94 0.0 0.0 0.00 0.00 0.00 57 1009.8
20260509210003 32 132 0.0 4.8 0.00 0.00 0.00 54 1010.0
20260509205501 32 196 0.0 4.8 0.00 0.00 0.00 55 1009.9
20260509205001 32 98 0.0 0.0 0.00 0.00 0.00 49 1009.6
20260509204501 32 97 0.0 0.0 0.00 0.00 0.00 49 1009.6
20260509204000 31 97 0.0 0.0 0.00 0.00 0.00 51 1009.8
20260509203500 31 119 0.0 0.0 0.00 0.00 0.00 51 1009.6
20260509203000 30 119 0.0 0.0 0.00 0.00 0.00 55 1009.7
20260509202500 29 103 0.0 0.0 0.00 0.00 0.00 60 1009.9
20260509202001 28 103 0.0 0.0 0.00 0.00 0.00 62 1009.9
20260509201500 27 103 0.0 0.0 0.00 0.00 0.00 66 1010.0
20260509200500 26 104 0.0 4.8 0.00 0.00 0.00 73 1011.0
20260509200000 26 96 0.0 14.5 0.00 0.00 0.00 72 1011.0
20260509195500 25 79 0.0 14.5 0.00 0.00 0.00 75 1011.2
20260509195001 25 124 0.0 12.9 0.00 0.00 0.00 73 1011.0
20260509194500 25 81 0.0 4.8 0.00 0.00 0.00 73 1011.0
20260509194000 25 87 0.0 3.2 0.00 0.00 0.00 71 1010.9
20260509193500 27 38 0.0 4.8 0.00 0.00 0.00 66 1010.7
20260509193000 29 63 0.0 4.8 0.00 0.00 0.00 59 1010.8
20260509192501 31 76 0.0 3.2 0.00 0.00 0.00 58 1010.6
20260509191500 32 73 0.0 0.0 0.00 0.00 0.00 62 1010.6
20260509191000 33 204 0.0 0.0 0.00 0.00 0.00 57 1010.5
20260509190500 33 204 0.0 0.0 0.00 0.00 0.00 57 1010.4
20260509190000 33 192 0.0 0.0 0.00 0.00 0.00 60 1010.4
20260509185000 33 88 0.0 0.0 0.00 0.00 0.00 63 1010.5
20260509184501 33 194 0.0 0.0 0.00 0.00 0.00 63 1010.7
20260509184001 33 194 0.0 0.0 0.00 0.00 0.00 62 1010.8
20260509183000 33 178 0.0 0.0 0.00 0.00 0.00 61 1011.2
20260509182501 33 172 0.0 0.0 0.00 0.00 0.00 61 1011.2
20260509182001 33 170 0.0 0.0 0.00 0.00 0.00 61 1011.3
20260509181500 33 176 0.0 0.0 0.00 0.00 0.00 62 1011.3
20260509180501 32 213 0.0 0.0 0.00 0.00 0.00 62 1011.4
20260509180002 32 208 0.0 6.4 0.00 0.00 0.00 65 1011.5
20260509175502 32 205 0.0 6.4 0.00 0.00 0.00 67 1011.5
20260509174502 32 170 0.0 0.0 0.00 0.00 0.00 68 1011.6
20260509174000 31 171 0.0 0.0 0.00 0.00 0.00 68 1011.8
20260509173500 31 38 0.0 9.7 0.00 0.00 0.00 67 1012.0
20260509173000 31 86 0.0 9.7 0.00 0.00 0.00 67 1012.1
20260509172500 31 193 0.0 0.0 0.00 0.00 0.00 67 1012.0
20260509172000 31 173 0.0 0.0 0.00 0.00 0.00 66 1012.2
20260509171503 31 144 0.0 0.0 0.00 0.00 0.00 68 1012.0
20260509170500 31 181 0.0 6.4 0.00 0.00 0.00 70 1012.1
20260509170000 31 203 0.0 0.0 0.00 0.00 0.00 70 1011.9
20260509165500 31 182 0.0 0.0 0.00 0.00 0.00 71 1011.9
20260509165000 31 213 0.0 0.0 0.00 0.00 0.00 71 1011.9
20260509164500 31 210 0.0 0.0 0.00 0.00 0.00 72 1012.0
20260509164000 31 193 0.0 0.0 0.00 0.00 0.00 72 1012.1
20260509163500 31 209 0.0 0.0 0.00 0.00 0.00 72 1012.1
20260509163000 30 194 0.0 0.0 0.00 0.00 0.00 73 1012.0
20260509162500 30 201 0.0 0.0 0.00 0.00 0.00 74 1012.0
20260509162000 30 205 0.0 0.0 0.00 0.00 0.00 73 1012.2
20260509161500 30 189 0.0 0.0 0.00 0.00 0.00 76 1012.2
20260509161000 29 193 0.0 0.0 0.00 0.00 0.00 76 1012.1
20260509160500 29 193 0.0 0.0 0.00 0.00 0.00 75 1012.2
20260509160002 29 184 0.0 0.0 0.00 0.00 0.00 76 1012.1
20260509155500 28 174 0.0 0.0 0.00 0.00 0.00 79 1012.2
20260509155000 28 213 0.0 0.0 0.00 0.00 0.00 80 1012.3
20260509154501 28 194 0.0 0.0 0.00 0.00 0.00 82 1012.1
20260509154000 27 179 0.0 14.5 0.00 0.00 0.00 83 1012.2
20260509153502 27 200 0.0 14.5 0.00 0.00 0.00 85 1012.1
20260509152500 26 209 0.0 0.0 0.00 0.00 0.00 86 1012.2
20260509152000 26 169 0.0 0.0 0.00 0.00 0.00 87 1012.1
20260509151001 25 140 0.0 0.0 0.00 0.00 0.00 90 1012.1
20260509150500 25 191 0.0 0.0 0.00 0.00 0.00 90 1012.1
20260509150000 25 191 0.0 0.0 0.00 0.00 0.00 91 1012.1
20260509145500 25 192 0.0 0.0 0.00 0.00 0.00 93 1012.0
20260509144500 24 131 0.0 3.2 0.00 0.00 0.00 93 1012.1
20260509144000 24 185 0.0 4.8 0.00 0.00 0.00 93 1012.0
20260509143500 24 131 0.0 4.8 0.00 0.00 0.00 94 1012.0
20260509143000 24 186 0.0 3.2 0.00 0.00 0.00 94 1011.8
20260509142500 24 182 0.0 3.2 0.00 0.00 0.00 93 1011.7
20260509142000 24 147 0.0 3.2 0.00 0.00 0.00 94 1011.9
20260509141500 24 180 0.0 3.2 0.00 0.00 0.00 94 1011.7
20260509141001 23 133 0.0 6.4 0.00 0.00 0.00 96 1011.5
20260509140501 23 132 0.0 6.4 0.00 0.00 0.00 95 1011.2
20260509140000 23 197 0.0 0.0 0.00 0.00 0.00 96 1011.2
20260509135501 23 200 0.0 8.0 0.00 0.00 0.00 97 1011.5
20260509135002 23 196 0.0 8.0 0.00 0.00 0.00 97 1011.5
20260509134001 23 344 0.0 0.0 0.00 0.00 0.00 99 1011.6
20260509133501 22 344 0.0 0.0 0.00 0.00 0.00 99 1011.7
20260509132500 22 344 0.0 4.8 0.00 0.00 0.00 99 1012.0
20260509132001 22 344 0.0 1.6 0.00 0.00 0.00 99 1012.1
20260509131500 22 346 0.0 0.0 0.00 0.00 0.00 99 1012.1
20260509131002 22 348 0.0 1.6 0.00 0.00 0.00 99 1012.2
20260509130500 22 351 0.0 1.6 0.00 0.00 0.00 100 1012.0
20260509125500 22 95 0.0 0.0 0.00 0.00 0.00 99 1011.7
20260509125000 22 95 0.0 0.0 0.00 0.00 0.00 99 1012.0
20260509124500 22 95 0.0 0.0 0.00 0.00 0.00 99 1011.8
20260509124000 22 95 0.0 0.0 0.00 0.00 0.00 99 1011.5
20260509123502 22 95 0.0 0.0 0.00 0.00 0.00 99 1011.4
20260509123000 22 95 0.0 0.0 0.00 0.00 0.00 99 1011.5
20260509122500 22 95 0.0 0.0 0.00 0.00 0.00 99 1011.6
20260509122000 22 95 0.0 0.0 0.00 0.00 0.00 99 1011.8
20260509121500 22 95 0.0 0.0 0.00 0.00 0.00 99 1011.7
20260509120500 22 95 0.0 3.2 0.00 0.00 0.00 99 1011.4
20260509120001 22 102 0.0 0.0 0.00 0.00 0.00 99 1011.5
20260509115000 22 109 0.0 0.0 0.00 0.00 0.00 99 1011.9
20260509114502 22 114 0.0 0.0 0.00 0.00 0.00 99 1011.9
20260509114002 22 114 0.0 0.0 0.00 0.00 0.00 99 1011.7
20260509113500 22 114 0.0 0.0 0.00 0.00 0.00 99 1012.0
20260509113000 22 167 0.0 0.0 0.00 0.00 0.00 99 1012.4
20260509112501 22 167 0.0 0.0 0.00 0.00 0.00 99 1012.4
20260509112001 22 167 0.0 0.0 0.00 0.00 0.00 99 1012.4
20260509111500 22 167 0.0 0.0 0.00 0.00 0.00 99 1012.5
20260509111001 22 167 0.0 0.0 0.00 0.00 0.00 99 1012.7
20260509110500 22 167 0.0 0.0 0.00 0.00 0.00 99 1012.5
20260509110001 22 167 0.0 0.0 0.00 0.00 0.00 99 1012.5
20260509105500 22 167 0.0 0.0 0.00 0.00 0.00 99 1012.6
20260509105000 22 167 0.0 0.0 0.00 0.00 0.00 99 1012.7
20260509104501 22 167 0.0 0.0 0.00 0.00 0.00 99 1012.6
20260509104000 22 167 0.0 0.0 0.00 0.00 0.00 99 1012.5
20260509103500 22 167 0.0 0.0 0.00 0.00 0.00 99 1012.5
20260509103001 22 166 0.0 0.0 0.00 0.00 0.00 99 1012.7
20260509102500 22 166 0.0 0.0 0.00 0.00 0.00 99 1012.7
20260509102000 22 167 0.0 0.0 0.00 0.00 0.00 99 1012.6
20260509101000 22 167 0.0 0.0 0.00 0.00 0.00 99 1012.4
20260509100500 22 167 0.0 0.0 0.00 0.00 0.00 99 1012.1
20260509100001 22 167 0.0 0.0 0.00 0.00 0.00 99 1011.6
20260509095501 22 167 0.0 0.0 0.00 0.00 0.00 99 1011.3
20260509095001 22 167 0.0 0.0 0.00 0.00 0.00 99 1011.2
20260509092500 22 167 0.0 0.0 0.00 0.00 0.00 98 1011.2
20260509092001 22 167 0.0 0.0 0.00 0.00 0.00 98 1011.2
20260509091001 22 167 0.0 0.0 0.00 0.00 0.00 98 1011.1
20260509090501 22 167 0.0 0.0 0.00 0.00 0.00 98 1011.1
20260509085500 22 167 0.0 0.0 0.00 0.00 0.00 98 1011.3
20260509084000 22 167 0.0 0.0 0.00 0.00 0.00 98 1011.4
20260509083500 22 167 0.0 0.0 0.00 0.00 0.00 98 1011.4
20260509083000 22 167 0.0 0.0 0.00 0.00 0.00 98 1011.3
20260509082502 22 167 0.0 0.0 0.00 0.00 0.00 98 1011.6
20260509082000 22 167 0.0 0.0 0.00 0.00 0.00 98 1011.8
20260509081503 22 167 0.0 0.0 0.00 0.00 0.00 98 1011.9
20260509081001 22 167 0.0 0.0 0.00 0.00 0.00 98 1011.6
20260509080501 22 173 0.0 0.0 0.00 0.00 0.00 98 1011.6
20260509080001 22 173 0.0 0.0 0.00 0.00 0.00 98 1011.7
20260509075002 22 173 0.0 0.0 0.00 0.00 0.00 97 1011.8
20260509074001 22 173 0.0 0.0 0.00 0.00 0.00 97 1011.7
20260509073501 22 173 0.0 0.0 0.00 0.00 0.00 97 1011.6
20260509073001 22 173 0.0 0.0 0.00 0.00 0.00 97 1011.7
20260509072001 22 174 0.0 0.0 0.00 0.00 0.00 97 1012.0
20260509071501 22 174 0.0 0.0 0.00 0.00 0.00 97 1012.0
20260509071002 22 174 0.0 0.0 0.00 0.00 0.00 97 1012.0
20260509070501 22 174 0.0 0.0 0.00 0.00 0.00 97 1011.9
20260509065501 22 174 0.0 0.0 0.00 0.00 0.00 96 1012.0
20260509065001 22 173 0.0 0.0 0.00 0.00 0.00 96 1011.7
20260509064501 22 173 0.0 0.0 0.00 0.00 0.00 96 1011.4
20260509064002 22 173 0.0 0.0 0.00 0.00 0.00 96 1011.4
20260509063501 22 188 0.0 0.0 0.00 0.00 0.00 95 1011.6
20260509063006 22 188 0.0 0.0 0.00 0.00 0.00 95 1011.7
20260509062002 22 206 0.0 0.0 0.00 0.00 0.00 95 1011.7
20260509061501 22 210 0.0 0.0 0.00 0.00 0.00 94 1011.6
20260509061001 22 161 0.0 4.8 0.00 0.00 0.00 94 1011.3
20260509060503 22 101 0.0 3.2 0.00 0.00 0.00 94 1011.1
20260509060003 22 111 0.0 1.6 0.00 0.00 0.00 94 1011.1
20260509055001 22 134 0.0 1.6 0.00 0.00 0.00 93 1011.3
20260509054503 23 175 0.0 1.6 0.00 0.00 0.00 93 1011.4
20260509054002 23 127 0.0 0.0 0.00 0.00 0.00 93 1011.4
20260509053501 23 116 0.0 4.8 0.00 0.00 0.00 93 1011.4
20260509053001 23 186 0.0 4.8 0.00 0.00 0.00 93 1011.1
20260509052504 23 187 0.0 3.2 0.00 0.00 0.00 93 1010.8
20260509052003 23 188 0.0 3.2 0.00 0.00 0.00 93 1010.7
20260509051504 23 128 0.0 3.2 0.00 0.00 0.00 93 1010.7
20260509051003 23 142 0.0 3.2 0.00 0.00 0.00 92 1010.6
20260509050501 23 167 0.0 1.6 0.00 0.00 0.00 92 1010.8
20260509050003 23 130 0.0 0.0 0.00 0.00 0.00 92 1010.8
20260509045504 23 130 0.0 0.0 0.00 0.00 0.00 92 1010.7
20260509044002 23 136 0.0 1.6 0.00 0.00 0.00 91 1010.7
20260509043504 23 161 0.0 1.6 0.00 0.00 0.00 91 1010.8
20260509043003 23 98 0.0 1.6 0.00 0.00 0.00 91 1010.8
20260509042503 23 98 0.0 1.6 0.00 0.00 0.00 91 1010.8
20260509042001 23 140 0.0 1.6 0.00 0.00 0.00 91 1011.1
20260509041503 23 149 0.0 1.6 0.00 0.00 0.00 91 1011.1
20260509041005 23 189 0.0 3.2 0.00 0.00 0.00 91 1011.3
20260509040502 23 198 0.0 3.2 0.00 0.00 0.00 90 1011.1
20260509040002 23 102 0.0 1.6 0.00 0.00 0.00 90 1011.1
20260509035502 23 194 0.0 0.0 0.00 0.00 0.00 90 1011.0
20260509035001 23 148 0.0 3.2 0.00 0.00 0.00 90 1011.0
20260509034501 23 105 0.0 1.6 0.00 0.00 0.00 90 1010.8
20260509034002 23 92 0.0 1.6 0.00 0.00 0.00 90 1010.7
20260509033502 23 84 0.0 0.0 0.00 0.00 0.00 90 1011.0
20260509033004 23 84 0.0 0.0 0.00 0.00 0.00 90 1011.1
20260509032502 23 84 0.0 0.0 0.00 0.00 0.00 90 1011.1
20260509025002 23 92 0.0 0.0 0.00 0.00 0.00 88 1010.7
20260509024504 23 92 0.0 1.6 0.00 0.00 0.00 88 1010.6
20260509024004 23 96 0.0 1.6 0.00 0.00 0.00 87 1010.4
20260509023002 23 96 0.0 0.0 0.00 0.00 0.00 87 1010.3
20260509022502 23 96 0.0 0.0 0.00 0.00 0.00 87 1010.3
20260509021502 24 88 0.0 1.6 0.00 0.00 0.00 86 1010.2
20260509021002 24 134 0.0 0.0 0.00 0.00 0.00 86 1010.0
20260509020502 24 101 0.0 0.0 0.00 0.00 0.00 86 1010.0
20260509020003 24 98 0.0 1.6 0.00 0.00 0.00 85 1009.8
20260509015504 24 103 0.0 1.6 0.00 0.00 0.00 85 1009.8
20260509015002 24 94 0.0 1.6 0.00 0.00 0.00 85 1009.6
20260509014501 25 91 0.0 4.8 0.00 0.00 0.00 85 1009.8
20260509014003 25 79 0.0 4.8 0.00 0.00 0.00 84 1009.8
20260509013504 25 101 0.0 1.6 0.00 0.00 0.00 84 1010.0
20260509012502 25 92 0.0 0.0 0.00 0.00 0.00 84 1009.7
20260509012001 25 92 0.0 0.0 0.00 0.00 0.00 83 1009.7
20260509010502 25 94 0.0 0.0 0.00 0.00 0.00 83 1009.7
20260509005502 25 86 0.0 0.0 0.00 0.00 0.00 82 1009.6
20260509004504 25 90 0.0 3.2 0.00 0.00 0.00 82 1009.7
20260509004003 25 90 0.0 3.2 0.00 0.00 0.00 81 1009.6
20260509003501 26 95 0.0 1.6 0.00 0.00 0.00 81 1009.5
20260509003001 26 83 0.0 1.6 0.00 0.00 0.00 81 1009.5
20260509002504 26 134 0.0 1.6 0.00 0.00 0.00 80 1009.6
20260509002004 26 111 0.0 1.6 0.00 0.00 0.00 80 1009.7
20260509001004 26 94 0.0 0.0 0.00 0.00 0.00 79 1009.5
20260509000504 26 91 0.0 0.0 0.00 0.00 0.00 79 1009.6
20260509000005 26 103 0.0 0.0 0.00 0.00 0.00 78 1009.7
20260508235502 26 117 0.0 1.6 0.00 0.00 0.00 78 1009.6
20260508235001 26 92 0.0 1.6 0.00 0.00 0.00 78 1009.5